Location: Izdebno
(52.6670°N, 16.2170°E)
Time: 18:50:07
(UTC+01:00)

Tiros 1 despin weight - All Passes

Search period start: 22 February 2024 00:00
Search period end: 03 March 2024 00:00
Orbit: 581 x 625 km, 48.2° (Epoch: 21 February)

Date Brightness Start Highest point End Pass type
(mag) Time Alt. Az. Time Alt. Az. Time Alt. Az.
22 Feb - 11:09:29 10° S 11:12:27 18° SSE 11:15:27 10° ESE daylight
22 Feb - 12:48:53 10° SW 12:52:56 40° SSE 12:57:00 10° E daylight
22 Feb - 14:29:34 10° W 14:33:43 45° S 14:37:54 10° ESE daylight
22 Feb - 16:10:45 10° W 16:14:22 26° SSW 16:17:59 10° SSE daylight
23 Feb - 11:20:09 10° SSW 11:23:42 25° SSE 11:27:17 10° E daylight
23 Feb - 13:00:11 10° WSW 13:04:20 45° S 13:08:30 10° E daylight
23 Feb - 14:41:03 10° W 14:45:07 40° SSW 14:49:13 10° SE daylight
23 Feb - 16:22:35 10° WSW 16:25:37 18° SSW 16:28:39 10° SSE daylight
24 Feb - 09:52:51 10° SSE 09:54:43 13° SE 09:56:35 10° ESE daylight
24 Feb - 11:31:07 10° SW 11:35:00 33° SSE 11:38:55 10° E daylight
24 Feb - 13:11:34 10° WSW 13:15:45 47° S 13:19:56 10° ESE daylight
24 Feb - 14:52:35 10° W 14:56:29 32° SSW 15:00:23 10° SE daylight
24 Feb - 16:34:56 10° WSW 16:36:47 12° SW 16:38:36 10° SSW daylight
25 Feb - 10:02:50 10° SSW 10:05:52 19° SSE 10:08:55 10° ESE daylight
25 Feb - 11:42:17 10° WSW 11:46:21 40° SSE 11:50:26 10° E daylight
25 Feb - 13:23:00 10° W 13:27:09 45° S 13:31:18 10° ESE daylight
25 Feb - 15:04:12 10° W 15:07:47 25° SSW 15:11:21 10° SSE daylight
26 Feb - 10:13:30 10° SSW 10:17:06 26° SSE 10:20:42 10° E daylight
26 Feb - 11:53:35 10° WSW 11:57:44 45° S 12:01:54 10° ESE daylight
26 Feb - 13:34:28 10° W 13:38:32 39° SSW 13:42:35 10° SE daylight
26 Feb - 15:16:02 10° WSW 15:18:59 18° SSW 15:21:57 10° S daylight
27 Feb - 08:46:04 10° S 08:48:05 13° SE 08:50:05 10° ESE daylight
27 Feb - 10:24:28 10° SW 10:28:23 33° SSE 10:32:18 10° E daylight
27 Feb - 12:04:58 10° WSW 12:09:08 47° S 12:13:18 10° ESE daylight
27 Feb - 13:45:59 10° W 13:49:51 32° SSW 13:53:44 10° SE daylight
27 Feb - 15:28:28 10° WSW 15:30:08 12° SW 15:31:47 10° SSW daylight
28 Feb - 08:56:07 10° SSW 08:59:13 19° SSE 09:02:19 10° ESE daylight
28 Feb - 10:35:38 10° WSW 10:39:43 40° SSE 10:43:48 10° E daylight
28 Feb - 12:16:21 10° W 12:20:30 45° S 12:24:39 10° ESE daylight
28 Feb - 13:57:35 10° W 14:01:07 24° SSW 14:04:38 10° SSE daylight
29 Feb - 09:06:47 10° SSW 09:10:26 26° SSE 09:14:04 10° E daylight
29 Feb - 10:46:54 10° WSW 10:51:05 46° S 10:55:14 10° ESE daylight
29 Feb - 12:27:48 10° W 12:31:51 39° SSW 12:35:54 10° SE daylight
29 Feb - 14:09:25 10° WSW 14:12:18 18° SSW 14:15:12 10° S daylight
01 Mar - 07:39:13 10° S 07:41:22 13° SE 07:43:30 10° ESE daylight
01 Mar - 09:17:44 10° SW 09:21:41 34° SSE 09:25:38 10° E daylight
01 Mar - 10:58:15 10° WSW 11:02:26 47° S 11:06:37 10° ESE daylight
01 Mar - 12:39:18 10° W 12:43:10 31° SSW 12:47:00 10° SE daylight
01 Mar - 14:21:55 10° WSW 14:23:24 12° SW 14:24:54 10° SSW daylight
02 Mar - 07:49:19 10° SSW 07:52:29 20° SSE 07:55:39 10° ESE daylight
02 Mar - 09:28:53 10° WSW 09:33:00 41° SSE 09:37:05 10° E daylight
02 Mar - 11:09:38 10° W 11:13:47 44° S 11:17:56 10° ESE daylight
02 Mar - 12:50:54 10° W 12:54:24 24° SSW 12:57:52 10° SSE daylight
